QPF
0.11 0.14 0.16 0.16 0.16 0.14 0.12 0.10 0.09 0.07 0.04 0.04 0.05 0.06 0.08 0.09 0.10 0.09 0.08 0.10 0.10 0.11 0.11 0.10 0.09 0.08 0.06 0.04 0.03 0.03 0.03 0.02 0.03 0.03 0.02 0.02 0.02 0.03
0.11 0.12 0.14 0.15 0.15 0.16 0.16 0.14 0.12 0.10 0.08 0.06 0.05 0.07 0.09 0.09 0.09 0.09 0.09 0.11 0.10 0.09 0.09 0.10 0.10 0.09 0.08 0.05 0.04 0.02 0.01 0.01 0.01 0.01 0.01 0.01 0.02 0.02
0.09 0.09 0.09 0.10 0.13 0.15 0.18 0.19 0.18 0.15 0.11 0.08 0.07 0.07 0.08 0.09 0.08 0.07 0.08 0.08 0.08 0.08 0.08 0.08 0.07 0.06 0.08 0.08 0.07 0.04 0.02 0.01 0.01 0.01 0.01 0.01 0.01 0.01
0.11 0.10 0.09 0.09 0.10 0.12 0.16 0.17 0.15 0.12 0.11 0.10 0.09 0.08 0.09 0.09 0.09 0.09 0.08 0.07 0.07 0.07 0.07 0.08 0.09 0.08 0.09 0.09 0.08 0.07 0.05 0.03 0.02 0.02 0.02 0.02 0.03 0.04
0.13 0.13 0.13 0.11 0.09 0.08 0.09 0.11 0.13 0.12 0.10 0.11 0.13 0.12 0.11 0.10 0.10 0.09 0.10 0.10 0.10 0.10 0.10 0.09 0.10 0.11 0.11 0.12 0.11 0.10 0.08 0.07 0.06 0.04 0.03 0.02 0.03 0.04
0.10 0.13 0.15 0.13 0.10 0.10 0.09 0.10 0.12 0.13 0.12 0.12 0.13 0.14 0.14 0.12 0.11 0.09 0.10 0.10 0.11 0.11 0.12 0.12 0.11 0.11 0.11 0.10 0.10 0.09 0.09 0.10 0.09 0.09 0.07 0.04 0.03 0.02
0.08 0.07 0.10 0.11 0.10 0.08 0.08 0.12 0.12 0.11 0.12 0.12 0.11 0.11 0.12 0.12 0.10 0.09 0.10 0.10 0.10 0.10 0.10 0.10 0.09 0.09 0.09 0.08 0.07 0.05 0.05 0.06 0.07 0.08 0.07 0.07 0.05 0.04
0.07 0.07 0.07 0.08 0.08 0.07 0.07 0.11 0.14 0.11 0.10 0.10 0.09 0.09 0.09 0.09 0.08 0.09 0.10 0.09 0.10 0.10 0.07 0.08 0.07 0.06 0.05 0.05 0.07 0.06 0.05 0.05 0.04 0.05 0.05 0.05 0.05 0.06
0.06 0.06 0.06 0.08 0.09 0.08 0.08 0.09 0.10 0.11 0.09 0.08 0.08 0.08 0.07 0.07 0.06 0.07 0.08 0.08 0.10 0.10 0.06 0.07 0.06 0.05 0.05 0.04 0.06 0.06 0.05 0.05 0.04 0.03 0.03 0.02 0.02 0.03
0.06 0.06 0.05 0.06 0.07 0.09 0.09 0.08 0.06 0.06 0.06 0.04 0.04 0.05 0.06 0.07 0.06 0.06 0.07 0.06 0.06 0.08 0.06 0.05 0.04 0.04 0.03 0.03 0.03 0.03 0.03 0.03 0.03 0.03 0.02 0.02 0.01 0.01
0.06 0.06 0.04 0.03 0.06 0.09 0.07 0.07 0.05 0.05 0.05 0.05 0.04 0.04 0.06 0.07 0.07 0.06 0.06 0.07 0.06 0.07 0.06 0.04 0.03 0.03 0.02 0.02 0.01 0.02 0.02 0.01 0.01 0.01 0.01 0.00 0.00 0.01
0.04 0.05 0.05 0.03 0.04 0.08 0.07 0.05 0.04 0.04 0.04 0.03 0.04 0.04 0.05 0.07 0.08 0.08 0.07 0.07 0.08 0.08 0.05 0.04 0.03 0.03 0.02 0.02 0.01 0.01 0.01 0.01 0.01 0.01 0.01 0.00 0.00 0.00
0.04 0.05 0.05 0.04 0.03 0.06 0.05 0.03 0.04 0.04 0.03 0.02 0.03 0.04 0.05 0.05 0.06 0.05 0.05 0.06 0.07 0.05 0.04 0.03 0.02 0.01 0.01 0.01 0.00 0.00 0.00 0.01 0.01 0.01 0.01 0.01 0.00 0.00
0.02 0.04 0.06 0.05 0.04 0.04 0.04 0.04 0.06 0.05 0.04 0.04 0.03 0.03 0.04 0.05 0.04 0.03 0.03 0.04 0.05 0.05 0.03 0.03 0.02 0.01 0.01 0.00 0.00 0.00 0.00 0.00 0.00 0.00 0.00 0.01 0.01 0.01
0.03 0.05 0.05 0.05 0.04 0.04 0.04 0.04 0.05 0.05 0.04 0.04 0.03 0.02 0.03 0.03 0.03 0.03 0.02 0.02 0.02 0.02 0.02 0.02 0.03 0.02 0.01 0.00 0.00 0.00 0.00 0.00 0.00 0.00 0.00 0.00 0.00 0.00
0.03 0.04 0.04 0.05 0.03 0.03 0.04 0.03 0.03 0.04 0.05 0.04 0.03 0.02 0.02 0.02 0.02 0.02 0.01 0.00 0.01 0.01 0.01 0.01 0.01 0.01 0.00 0.00 0.00 0.00 0.00 0.00 0.00 0.00 0.00 0.00 0.00 0.00
0.02 0.02 0.03 0.03 0.03 0.05 0.04 0.03 0.03 0.03 0.04 0.04 0.02 0.01 0.01 0.01 0.01 0.00 0.00 0.00 0.00 0.00 0.00 0.00 0.00 0.00 0.00 0.00 0.00 0.00 0.00 0.00 0.00 0.00 0.00 0.00 0.01 0.00
0.01 0.02 0.02 0.02 0.04 0.04 0.03 0.02 0.02 0.01 0.02 0.02 0.02 0.01 0.01 0.01 0.00 0.00 0.00 0.00 0.00 0.00 0.00 0.00 0.00 0.00 0.00 0.00 0.00 0.00 0.00 0.00 0.00 0.00 0.01 0.00 0.00 0.00
0.01 0.01 0.01 0.01 0.01 0.01 0.01 0.01 0.01 0.00 0.01 0.01 0.01 0.01 0.01 0.00 0.01 0.00 0.00 0.00 0.00 0.00 0.00 0.00 0.00 0.00 0.00 0.00 0.00 0.00 0.00 0.00 0.00 0.00 0.00 0.00 0.00 0.00
0.00 0.00 0.00 0.00 0.00 0.00 0.00 0.00 0.00 0.00 0.00 0.00 0.00 0.00 0.00 0.00 0.00 0.00 0.00 0.00 0.00 0.00 0.00 0.00 0.00 0.00 0.00 0.00 0.00 0.00 0.00 0.00 0.00 0.00 0.00 0.00 0.00 0.00
0.00 0.00 0.00 0.00 0.00 0.00 0.00 0.00 0.00 0.00 0.00 0.00 0.00 0.00 0.00 0.00 0.00 0.00 0.00 0.00 0.00 0.00 0.00 0.00 0.00 0.00 0.00 0.00 0.00 0.00 0.00 0.00 0.00 0.00 0.00 0.00 0.00 0.00
0.00 0.00 0.00 0.00 0.00 0.00 0.00 0.00 0.00 0.00 0.00 0.00 0.00 0.00 0.00 0.00 0.00 0.00 0.00 0.00 0.00 0.00 0.00 0.00 0.00 0.00 0.00 0.00 0.00 0.00 0.00 0.00 0.00 0.00 0.00 0.00 0.00 0.00
0.00 0.00 0.00 0.00 0.00 0.00 0.00 0.00 0.00 0.00 0.00 0.00 0.00 0.00 0.00 0.00 0.00 0.00 0.00 0.00 0.00 0.00 0.00 0.00 0.00 0.00 0.00 0.00 0.00 0.00 0.00 0.00 0.00 0.00 0.00 0.00 0.00 0.00
MSLP
1011.01 1011.44 1011.86 1012.26 1012.61 1012.88 1013.11 1013.30 1013.48 1013.66 1013.87 1014.11 1014.36 1014.61 1014.83 1015.03 1015.19 1015.32 1015.44 1015.59 1015.80 1016.10 1016.48 1016.94 1017.47 1018.03 1018.57 1019.06 1019.48 1019.81 1020.06 1020.23 1020.36 1020.45 1020.52 1020.59 1020.64 1020.68
1010.73 1011.08 1011.43 1011.75 1012.02 1012.24 1012.43 1012.60 1012.79 1013.00 1013.27 1013.57 1013.90 1014.23 1014.52 1014.78 1014.97 1015.12 1015.25 1015.39 1015.57 1015.84 1016.19 1016.64 1017.17 1017.73 1018.29 1018.82 1019.28 1019.65 1019.93 1020.14 1020.29 1020.40 1020.48 1020.56 1020.61 1020.66
1010.60 1010.84 1011.08 1011.29 1011.46 1011.60 1011.72 1011.84 1012.01 1012.25 1012.55 1012.92 1013.32 1013.74 1014.13 1014.46 1014.73 1014.93 1015.09 1015.24 1015.42 1015.67 1016.01 1016.44 1016.95 1017.50 1018.07 1018.61 1019.09 1019.48 1019.80 1020.04 1020.22 1020.35 1020.46 1020.56 1020.64 1020.71
1010.59 1010.72 1010.84 1010.92 1010.98 1011.00 1011.03 1011.09 1011.21 1011.43 1011.76 1012.17 1012.65 1013.15 1013.64 1014.07 1014.43 1014.71 1014.93 1015.13 1015.34 1015.60 1015.93 1016.35 1016.84 1017.38 1017.94 1018.47 1018.96 1019.37 1019.70 1019.96 1020.17 1020.33 1020.47 1020.60 1020.72 1020.82
1010.70 1010.72 1010.71 1010.67 1010.59 1010.49 1010.41 1010.37 1010.43 1010.61 1010.93 1011.36 1011.89 1012.47 1013.05 1013.59 1014.05 1014.44 1014.76 1015.04 1015.31 1015.61 1015.96 1016.39 1016.87 1017.40 1017.94 1018.46 1018.93 1019.34 1019.68 1019.95 1020.17 1020.36 1020.53 1020.69 1020.84 1020.99
1010.91 1010.82 1010.70 1010.54 1010.33 1010.10 1009.90 1009.76 1009.73 1009.85 1010.12 1010.55 1011.11 1011.74 1012.40 1013.04 1013.62 1014.13 1014.56 1014.95 1015.31 1015.68 1016.09 1016.54 1017.04 1017.56 1018.08 1018.59 1019.04 1019.43 1019.76 1020.03 1020.26 1020.46 1020.65 1020.83 1021.02 1021.20
1011.20 1011.02 1010.80 1010.52 1010.20 1009.85 1009.53 1009.28 1009.16 1009.20 1009.42 1009.82 1010.37 1011.03 1011.75 1012.47 1013.16 1013.79 1014.35 1014.86 1015.33 1015.80 1016.28 1016.78 1017.30 1017.84 1018.36 1018.85 1019.28 1019.66 1019.96 1020.22 1020.44 1020.64 1020.83 1021.04 1021.24 1021.45
1011.53 1011.28 1010.97 1010.60 1010.18 1009.74 1009.32 1008.97 1008.76 1008.72 1008.88 1009.23 1009.76 1010.43 1011.18 1011.96 1012.73 1013.46 1014.14 1014.77 1015.36 1015.93 1016.50 1017.07 1017.64 1018.20 1018.73 1019.22 1019.64 1019.99 1020.28 1020.52 1020.72 1020.91 1021.09 1021.30 1021.51 1021.72
1011.88 1011.57 1011.20 1010.76 1010.27 1009.76 1009.27 1008.86 1008.58 1008.48 1008.57 1008.87 1009.36 1010.01 1010.77 1011.58 1012.40 1013.21 1013.98 1014.70 1015.40 1016.06 1016.72 1017.36 1017.98 1018.58 1019.14 1019.63 1020.05 1020.40 1020.67 1020.89 1021.08 1021.25 1021.42 1021.61 1021.81 1022.02
1012.24 1011.88 1011.46 1010.99 1010.47 1009.92 1009.40 1008.96 1008.64 1008.49 1008.54 1008.80 1009.25 1009.86 1010.60 1011.40 1012.24 1013.08 1013.90 1014.69 1015.45 1016.19 1016.91 1017.61 1018.29 1018.92 1019.51 1020.02 1020.46 1020.81 1021.08 1021.29 1021.47 1021.62 1021.78 1021.94 1022.13 1022.33
1012.58 1012.19 1011.76 1011.27 1010.75 1010.22 1009.70 1009.27 1008.95 1008.79 1008.81 1009.03 1009.44 1010.01 1010.70 1011.47 1012.28 1013.11 1013.93 1014.74 1015.52 1016.29 1017.05 1017.78 1018.50 1019.17 1019.78 1020.33 1020.78 1021.15 1021.44 1021.66 1021.83 1021.98 1022.12 1022.28 1022.44 1022.62
1012.91 1012.51 1012.08 1011.61 1011.12 1010.62 1010.16 1009.76 1009.47 1009.33 1009.35 1009.55 1009.92 1010.44 1011.07 1011.78 1012.53 1013.31 1014.08 1014.85 1015.61 1016.37 1017.12 1017.87 1018.59 1019.28 1019.92 1020.48 1020.97 1021.37 1021.68 1021.92 1022.11 1022.27 1022.41 1022.55 1022.71 1022.87
1013.22 1012.83 1012.42 1012.00 1011.56 1011.13 1010.73 1010.40 1010.17 1010.06 1010.10 1010.30 1010.64 1011.10 1011.66 1012.29 1012.96 1013.64 1014.34 1015.03 1015.73 1016.43 1017.14 1017.86 1018.56 1019.25 1019.90 1020.48 1021.00 1021.43 1021.77 1022.05 1022.26 1022.44 1022.59 1022.74 1022.88 1023.03
1013.51 1013.16 1012.80 1012.44 1012.07 1011.72 1011.40 1011.14 1010.98 1010.92 1010.98 1011.18 1011.49 1011.90 1012.39 1012.93 1013.49 1014.08 1014.66 1015.26 1015.86 1016.48 1017.12 1017.78 1018.44 1019.10 1019.74 1020.33 1020.86 1021.32 1021.70 1022.01 1022.26 1022.46 1022.64 1022.79 1022.94 1023.09
1013.79 1013.49 1013.19 1012.90 1012.61 1012.34 1012.10 1011.92 1011.82 1011.80 1011.90 1012.09 1012.37 1012.74 1013.16 1013.61 1014.08 1014.55 1015.03 1015.52 1016.02 1016.54 1017.09 1017.68 1018.28 1018.89 1019.50 1020.08 1020.61 1021.08 1021.49 1021.83 1022.11 1022.34 1022.54 1022.71 1022.87 1023.01
1014.05 1013.81 1013.59 1013.36 1013.15 1012.95 1012.78 1012.66 1012.61 1012.63 1012.74 1012.93 1013.20 1013.52 1013.88 1014.26 1014.64 1015.03 1015.41 1015.80 1016.20 1016.64 1017.10 1017.60 1018.13 1018.69 1019.24 1019.79 1020.31 1020.77 1021.19 1021.54 1021.84 1022.09 1022.30 1022.49 1022.65 1022.80
1014.27 1014.11 1013.95 1013.80 1013.64 1013.50 1013.38 1013.31 1013.28 1013.33 1013.45 1013.63 1013.88 1014.17 1014.48 1014.81 1015.14 1015.46 1015.78 1016.10 1016.43 1016.78 1017.17 1017.59 1018.05 1018.54 1019.04 1019.54 1020.02 1020.46 1020.85 1021.20 1021.50 1021.75 1021.97 1022.16 1022.33 1022.48
1014.45 1014.36 1014.26 1014.16 1014.04 1013.94 1013.85 1013.80 1013.79 1013.84 1013.96 1014.14 1014.37 1014.64 1014.93 1015.23 1015.53 1015.83 1016.11 1016.39 1016.68 1016.99 1017.32 1017.69 1018.09 1018.51 1018.94 1019.38 1019.80 1020.19 1020.55 1020.87 1021.14 1021.38 1021.58 1021.76 1021.92 1022.06
1014.56 1014.53 1014.48 1014.41 1014.32 1014.24 1014.16 1014.11 1014.11 1014.16 1014.27 1014.44 1014.66 1014.92 1015.21 1015.51 1015.82 1016.11 1016.40 1016.68 1016.96 1017.25 1017.55 1017.88 1018.23 1018.59 1018.96 1019.33 1019.68 1020.02 1020.32 1020.58 1020.81 1021.01 1021.19 1021.34 1021.47 1021.59
1014.58 1014.59 1014.57 1014.53 1014.46 1014.38 1014.30 1014.25 1014.24 1014.29 1014.39 1014.56 1014.78 1015.05 1015.35 1015.67 1015.99 1016.31 1016.62 1016.92 1017.22 1017.52 1017.81 1018.12 1018.43 1018.75 1019.06 1019.37 1019.65 1019.92 1020.15 1020.36 1020.53 1020.68 1020.81 1020.92 1021.02 1021.11
1014.49 1014.52 1014.52 1014.49 1014.43 1014.35 1014.28 1014.23 1014.23 1014.27 1014.37 1014.54 1014.77 1015.05 1015.37 1015.71 1016.06 1016.42 1016.77 1017.10 1017.43 1017.74 1018.05 1018.35 1018.64 1018.92 1019.19 1019.44 1019.67 1019.87 1020.04 1020.18 1020.30 1020.40 1020.48 1020.54 1020.60 1020.64
1014.24 1014.29 1014.30 1014.28 1014.24 1014.18 1014.12 1014.08 1014.09 1014.14 1014.25 1014.43 1014.67 1014.96 1015.30 1015.66 1016.04 1016.43 1016.81 1017.18 1017.53 1017.87 1018.19 1018.49 1018.77 1019.03 1019.27 1019.48 1019.66 1019.81 1019.93 1020.02 1020.09 1020.14 1020.17 1020.19 1020.20 1020.21
1013.80 1013.87 1013.90 1013.91 1013.89 1013.86 1013.83 1013.83 1013.86 1013.94 1014.08 1014.27 1014.52 1014.82 1015.17 1015.54 1015.94 1016.34 1016.74 1017.12 1017.50 1017.85 1018.18 1018.48 1018.76 1019.01 1019.22 1019.41 1019.56 1019.68 1019.77 1019.83 1019.87 1019.88 1019.88 1019.87 1019.84 1019.81
Thickness
5684 5687 5689 5692 5694 5697 5698 5698 5694 5690 5692 5697 5701 5705 5706 5708 5709 5709 5709 5709 5709 5708 5707 5705 5703 5702 5699 5698 5696 5695 5694 5692 5690 5689 5687 5685 5683 5681
5678 5680 5683 5685 5688 5691 5692 5693 5694 5692 5689 5692 5695 5698 5700 5702 5702 5703 5703 5703 5703 5702 5700 5698 5697 5695 5693 5691 5690 5688 5687 5685 5683 5682 5680 5678 5676 5674
5671 5674 5676 5679 5682 5683 5686 5687 5688 5689 5686 5686 5689 5691 5692 5694 5695 5695 5696 5696 5696 5695 5694 5692 5690 5688 5687 5685 5683 5681 5680 5678 5676 5674 5672 5671 5669 5667
5665 5667 5670 5673 5675 5676 5678 5681 5682 5684 5683 5681 5681 5683 5684 5686 5687 5687 5688 5688 5688 5688 5686 5685 5683 5681 5680 5678 5676 5674 5672 5670 5669 5667 5665 5663 5661 5659
5659 5662 5664 5666 5668 5670 5672 5675 5677 5678 5679 5677 5675 5676 5677 5678 5678 5679 5679 5679 5679 5678 5677 5676 5675 5674 5673 5671 5669 5667 5665 5663 5661 5659 5656 5654 5653 5651
5654 5657 5659 5661 5663 5664 5666 5668 5670 5671 5671 5671 5670 5669 5670 5671 5671 5671 5670 5669 5669 5669 5668 5667 5666 5666 5665 5663 5661 5659 5657 5655 5653 5650 5647 5645 5644 5642
5647 5651 5653 5656 5659 5661 5663 5664 5665 5665 5664 5664 5663 5663 5663 5664 5664 5664 5663 5661 5659 5659 5658 5657 5656 5656 5655 5654 5653 5651 5649 5647 5645 5642 5639 5637 5636 5634
5641 5644 5648 5651 5654 5656 5659 5660 5662 5661 5659 5659 5658 5659 5659 5660 5659 5659 5656 5654 5651 5649 5650 5646 5647 5646 5645 5645 5645 5643 5642 5639 5637 5634 5632 5629 5628 5627
5635 5638 5641 5645 5647 5650 5652 5653 5655 5657 5657 5657 5656 5656 5656 5657 5655 5652 5651 5649 5647 5643 5642 5638 5637 5636 5636 5636 5636 5636 5634 5632 5630 5628 5626 5623 5622 5621
5631 5633 5636 5638 5642 5644 5645 5645 5646 5648 5651 5653 5653 5653 5654 5653 5652 5650 5646 5642 5639 5636 5637 5632 5629 5628 5627 5627 5628 5628 5627 5625 5624 5622 5620 5618 5616 5615
5626 5629 5631 5634 5638 5640 5640 5640 5640 5641 5644 5646 5647 5648 5648 5647 5646 5643 5640 5638 5633 5630 5629 5628 5623 5621 5620 5619 5619 5620 5619 5618 5617 5615 5614 5613 5612 5610
5622 5625 5628 5631 5633 5635 5636 5636 5635 5636 5638 5638 5639 5640 5640 5640 5640 5640 5639 5635 5631 5627 5625 5624 5620 5618 5615 5613 5613 5613 5613 5612 5612 5611 5610 5609 5608 5606
5618 5621 5624 5627 5629 5631 5632 5633 5633 5633 5633 5633 5633 5633 5633 5633 5633 5633 5634 5633 5631 5627 5625 5623 5618 5616 5614 5610 5608 5607 5607 5608 5607 5606 5606 5605 5604 5603
5616 5617 5620 5623 5625 5627 5628 5629 5629 5629 5628 5627 5627 5626 5626 5626 5626 5626 5626 5626 5627 5627 5624 5623 5619 5616 5612 5608 5606 5604 5603 5603 5604 5603 5602 5601 5600 5599
5615 5616 5618 5620 5622 5622 5623 5624 5625 5624 5624 5623 5622 5621 5621 5621 5621 5621 5620 5620 5620 5619 5618 5618 5618 5615 5613 5610 5606 5603 5602 5600 5600 5600 5599 5598 5597 5596
5614 5616 5617 5618 5618 5619 5619 5620 5620 5621 5621 5619 5618 5617 5617 5617 5617 5617 5615 5615 5614 5611 5611 5613 5614 5613 5611 5608 5606 5603 5601 5600 5598 5597 5597 5596 5595 5594
5616 5615 5615 5615 5615 5615 5615 5615 5616 5617 5616 5615 5615 5614 5613 5613 5612 5612 5612 5611 5610 5607 5605 5606 5607 5608 5607 5606 5603 5601 5599 5598 5597 5596 5595 5594 5594 5594
5618 5616 5614 5613 5613 5613 5613 5613 5613 5614 5614 5613 5612 5612 5611 5610 5609 5608 5608 5608 5606 5604 5603 5602 5603 5603 5602 5601 5601 5600 5598 5597 5595 5594 5593 5592 5593 5593
5618 5616 5615 5614 5614 5613 5613 5613 5612 5612 5612 5612 5611 5610 5609 5608 5607 5606 5605 5604 5603 5601 5600 5600 5601 5602 5601 5601 5598 5598 5597 5595 5593 5592 5591 5591 5592 5593
5620 5618 5617 5616 5615 5614 5614 5613 5612 5611 5611 5610 5610 5609 5608 5607 5606 5604 5603 5603 5601 5599 5598 5598 5599 5600 5600 5600 5598 5596 5596 5594 5593 5591 5590 5589 5589 5590
5622 5621 5620 5619 5618 5616 5615 5614 5613 5612 5611 5610 5609 5608 5607 5606 5605 5604 5602 5602 5600 5599 5599 5598 5597 5597 5596 5595 5595 5594 5593 5593 5593 5591 5590 5588 5588 5589
5625 5624 5623 5621 5620 5619 5617 5616 5614 5612 5611 5610 5609 5608 5607 5606 5605 5604 5602 5601 5600 5600 5598 5595 5594 5594 5593 5594 5594 5593 5591 5591 5591 5590 5589 5589 5588 5589
5629 5627 5626 5624 5622 5621 5619 5617 5616 5614 5612 5611 5610 5608 5607 5606 5605 5604 5603 5601 5600 5598 5596 5593 5591 5591 5591 5590 5590 5590 5589 5589 5588 5588 5589 5590 5589 5588